EDT,Max TemperatureF,Mean TemperatureF,Min TemperatureF,Max Dew PointF,MeanDew PointF,Min DewpointF,Max Humidity, Mean Humidity, Min Humidity, Max Sea Level PressureIn, Mean Sea Level PressureIn, Min Sea Level PressureIn, Max VisibilityMiles, Mean VisibilityMiles, Min VisibilityMiles, Max Wind SpeedMPH, Mean Wind SpeedMPH, Max Gust SpeedMPH,PrecipitationIn, CloudCover, Events, WindDirDegrees
2013-7-1,79,72,66,71,66,64,100,83,65,29.99,29.88,29.80,10,9,0,7,1,,0.16,7,Fog-Rain,205
2013-7-2,80,74,68,70,68,64,94,89,67,30.17,30.05,29.93,10,8,0,13,4,18,0.74,7,Fog-Rain,201
2013-7-3,80,74,69,72,70,68,100,89,74,30.24,30.18,30.09,10,7,0,8,2,,1.70,7,Fog-Rain,207
2013-7-4,82,75,68,73,68,66,100,88,69,30.27,30.22,30.11,10,7,1,13,2,21,1.45,7,Rain-Thunderstorm,196
2013-7-5,82,76,69,72,69,64,94,87,65,30.28,30.22,30.15,10,8,2,9,3,,0.64,6,Rain-Thunderstorm,217
2013-7-6,84,76,69,71,69,66,97,88,60,30.27,30.19,30.09,10,8,1,8,2,16,0.81,7,Rain-Thunderstorm,196
2013-7-7,82,76,71,72,70,66,94,87,69,30.21,30.14,30.05,10,9,2,13,4,16,0.05,7,Rain-Thunderstorm,200
2013-7-8,86,78,69,71,68,64,96,76,48,30.22,30.13,30.07,10,10,5,7,1,,0.00,5,,230
2013-7-9,88,78,69,72,69,63,100,79,46,30.20,30.12,30.02,10,9,1,9,2,,2.05,3,Rain-Thunderstorm,229
2013-7-10,82,76,69,72,70,68,96,84,69,30.12,30.03,29.94,10,8,1,12,2,22,0.02,5,,218
2013-7-11,81,74,69,72,70,66,94,85,70,30.00,29.94,29.85,10,9,1,8,2,,0.01,6,Rain,219
2013-7-12,82,75,69,70,67,64,100,82,60,30.06,29.93,29.86,10,7,0,9,2,,0.00,5,Fog-Thunderstorm,68
2013-7-13,81,74,68,70,66,63,94,80,61,30.16,30.09,30.00,10,9,3,10,6,17,0.04,8,Rain,54
2013-7-14,86,78,71,71,69,66,94,85,57,30.30,30.22,30.08,10,8,2,13,5,24,0.37,7,Rain,85
2013-7-15,88,76,69,70,68,66,94,79,53,30.37,30.30,30.23,10,9,2,8,2,,0.00,5,,53
2013-7-16,91,79,68,70,67,62,93,70,39,30.29,30.24,30.19,10,10,10,6,2,,0.00,0,,301
2013-7-17,93,81,71,71,69,67,94,78,50,30.23,30.19,30.12,10,9,1,8,5,36,0.44,3,Rain-Thunderstorm,309
2013-7-18,90,80,70,73,70,66,90,77,55,30.15,30.10,30.04,10,10,7,13,4,21,0.03,2,Thunderstorm,278
2013-7-19,88,78,69,71,70,68,94,76,53,30.11,30.03,29.96,10,8,2,12,3,17,0.00,0,,195
2013-7-20,84,76,69,73,70,66,100,88,70,30.06,30.00,29.93,10,7,0,17,5,25,0.56,5,Fog-Rain-Thunderstorm,209
2013-7-21,86,76,68,72,69,66,100,90,61,30.05,29.98,29.91,10,5,0,12,1,,0.05,4,Fog-Rain-Thunderstorm,226
2013-7-22,84,76,69,71,69,68,100,85,61,30.02,29.91,29.81,10,7,0,10,3,17,0.02,4,Fog-Rain,213
2013-7-23,87,77,68,68,66,63,94,75,46,29.85,29.80,29.74,10,9,1,10,3,16,0.17,1,,264
2013-7-24,91,78,69,68,66,63,90,69,48,29.83,29.78,29.73,10,10,10,9,3,,0.00,1,Thunderstorm,298
2013-7-25,82,74,68,68,65,62,93,77,56,30.07,29.93,29.82,10,9,2,12,4,16,0.25,5,Rain-Thunderstorm,59
2013-7-26,82,75,68,69,66,65,93,80,58,30.14,30.04,29.98,10,8,3,7,1,,0.08,5,,209
2013-7-27,79,72,66,70,67,64,100,89,69,30.04,29.99,29.89,10,5,0,14,2,,5.20,7,Fog-Rain-Thunderstorm,214
2013-7-28,82,76,69,70,67,65,93,80,56,30.02,29.94,29.89,10,8,4,12,1,,0.00,5,Rain-Thunderstorm,212
2013-7-29,84,73,64,68,62,57,93,67,47,30.15,30.06,29.99,10,10,5,8,2,,0.01,1,,327
2013-7-30,81,72,64,69,62,57,91,70,50,30.21,30.16,30.12,10,10,8,6,2,,0.00,3,,70
2013-7-31,75,72,69,70,68,66,94,89,76,30.18,30.09,29.96,10,6,0,20,2,37,0.92,8,Rain,329